Regional Weather Roundup
Issued by NWS

Home | Current Version | Previous Version | Text Only | Print | Product List | Glossary On
Versions: 1 2 3 4 5 6 7 8 9 10 11 12 13 14 15 16 17 18 19 20 21 22 23 24 25 26 27 28 29 30 31 32 33 34 35 36 37 38 39 40 41 42 43 44 45 46 47 48 49 50
000
ASCA42 TJSJ 010610
RWRPR
PUERTO RICO/U.S. VIRGIN ISLANDS HOURLY WEATHER ROUNDUP
NATIONAL WEATHER SERVICE SAN JUAN PR
200 AM AST TUE SEP 01 2015

PRZ001-004-010700-
PUERTO RICO

CITY           SKY/WX    TMP DP  RH WIND       PRES   REMARKS
SAN JUAN LMM   MOCLDY    81  77  89 E6        30.02F
$$

PRZ006-007-010700-
U.S. VIRGIN ISLANDS

CITY           SKY/WX    TMP DP  RH WIND       PRES   REMARKS
CHARLOTTE AMA  PTCLDY    84  77  79 E6        30.01F HX  94
CHRISTIANSTED  PTCLDY    79  77  94 NE6       30.01F
$$

HOURLY WEATHER ROUNDUP FOR THE NEWS MEDIA

CITY           SKY/WX    TMP DP  RH WIND       PRES   REMARKS
ORLANDO        FAIR      77  77 100 S5        30.05F
NEW YORK       FAIR      78  71  79 SW9       30.01S
NEWARK         FAIR      79  70  74 SW9       30.00S
CHICAGO        FAIR      71  68  90 S5        30.04S
HARTFORD       FAIR      68  66  93 CALM      29.96S FOG
BOSTON         FAIR      76  62  62 NW8       29.97R
DALLAS         FAIR      82  66  58 S12       30.01R
PHILADELPHIA   CLEAR     76  68  76 SW9       30.03F
LOS ANGELES    MOCLDY    70  65  84 SW5       29.91R
WASHINGTON DC  FAIR      71  68  90 S7        30.06F



USA.gov is the U.S. government's official web portal to all federal, state and local government web resources and services.